| time (UTC) | temp F | wind direction | speed MPH | gust MPH | rain 1hr in | rain 24hr in | rain mn in | humidity % | barometer mb |
| 20260508170825 | 67 | 282 | 11.0 | 13.0 | 0.00 | 0.00 | 0.00 | 45 | 1018.4 |
| 20260508170323 | 66 | 231 | 6.0 | 7.0 | 0.00 | 0.00 | 0.00 | 45 | 1018.2 |
| 20260508165819 | 66 | 303 | 12.0 | 14.0 | 0.00 | 0.00 | 0.00 | 45 | 1018.2 |
| 20260508165316 | 66 | 235 | 13.0 | 17.0 | 0.00 | 0.00 | 0.00 | 45 | 1018.4 |
| 20260508164812 | 66 | 206 | 9.0 | 10.0 | 0.00 | 0.00 | 0.00 | 46 | 1018.4 |
| 20260508164309 | 66 | 278 | 11.0 | 14.0 | 0.00 | 0.00 | 0.00 | 49 | 1018.5 |
| 20260508163807 | 66 | 234 | 9.0 | 10.0 | 0.00 | 0.00 | 0.00 | 47 | 1018.5 |
| 20260508163305 | 65 | 268 | 12.0 | 17.0 | 0.00 | 0.00 | 0.00 | 51 | 1018.8 |
| 20260508162800 | 65 | 225 | 10.0 | 14.0 | 0.00 | 0.00 | 0.00 | 46 | 1018.8 |
| 20260508162257 | 65 | 266 | 12.0 | 14.0 | 0.00 | 0.00 | 0.00 | 47 | 1019.0 |
| 20260508161754 | 65 | 255 | 9.0 | 13.0 | 0.00 | 0.00 | 0.00 | 48 | 1019.2 |
| 20260508161251 | 64 | 280 | 9.0 | 11.0 | 0.00 | 0.00 | 0.00 | 51 | 1019.1 |
| 20260508160749 | 64 | 217 | 11.0 | 13.0 | 0.00 | 0.00 | 0.00 | 49 | 1019.0 |
| 20260508160247 | 64 | 254 | 11.0 | 13.0 | 0.00 | 0.00 | 0.00 | 48 | 1019.2 |
| 20260508155743 | 64 | 194 | 9.0 | 11.0 | 0.00 | 0.00 | 0.00 | 47 | 1018.9 |
| 20260508155241 | 64 | 229 | 9.0 | 10.0 | 0.00 | 0.00 | 0.00 | 50 | 1019.1 |
| 20260508154732 | 64 | 212 | 8.0 | 10.0 | 0.00 | 0.00 | 0.00 | 48 | 1019.2 |
| 20260508154229 | 62 | 235 | 6.0 | 8.0 | 0.00 | 0.00 | 0.00 | 57 | 1019.4 |
| 20260508153726 | 62 | 279 | 11.0 | 13.0 | 0.00 | 0.00 | 0.00 | 48 | 1019.5 |
| 20260508153223 | 62 | 267 | 9.0 | 11.0 | 0.00 | 0.00 | 0.00 | 50 | 1019.6 |
| 20260508152719 | 62 | 265 | 12.0 | 16.0 | 0.00 | 0.00 | 0.00 | 51 | 1019.5 |
| 20260508152215 | 62 | 264 | 10.0 | 13.0 | 0.00 | 0.00 | 0.00 | 52 | 1019.5 |
| 20260508151712 | 62 | 274 | 12.0 | 15.0 | 0.00 | 0.00 | 0.00 | 51 | 1019.5 |
| 20260508151209 | 62 | 251 | 11.0 | 15.0 | 0.00 | 0.00 | 0.00 | 52 | 1019.7 |
| 20260508150705 | 62 | 226 | 9.0 | 10.0 | 0.00 | 0.00 | 0.00 | 51 | 1019.8 |
| 20260508150202 | 61 | 250 | 10.0 | 11.0 | 0.00 | 0.00 | 0.00 | 52 | 1019.7 |
| 20260508145658 | 61 | 286 | 11.0 | 14.0 | 0.00 | 0.00 | 0.00 | 51 | 1019.5 |
| 20260508145154 | 60 | 291 | 9.0 | 10.0 | 0.00 | 0.00 | 0.00 | 53 | 1019.8 |
| 20260508144652 | 60 | 229 | 10.0 | 11.0 | 0.00 | 0.00 | 0.00 | 54 | 1019.6 |
| 20260508144150 | 59 | 244 | 12.0 | 14.0 | 0.00 | 0.00 | 0.00 | 52 | 1019.9 |
| 20260508143647 | 59 | 248 | 11.0 | 14.0 | 0.00 | 0.00 | 0.00 | 53 | 1019.7 |
| 20260508143144 | 59 | 241 | 11.0 | 11.0 | 0.00 | 0.00 | 0.00 | 49 | 1019.8 |
| 20260508142640 | 59 | 219 | 11.0 | 13.0 | 0.00 | 0.00 | 0.00 | 53 | 1019.9 |
| 20260508142137 | 59 | 250 | 8.0 | 9.0 | 0.00 | 0.00 | 0.00 | 54 | 1019.7 |
| 20260508141633 | 57 | 238 | 12.0 | 14.0 | 0.00 | 0.00 | 0.00 | 53 | 1019.9 |
| 20260508141131 | 57 | 252 | 8.0 | 11.0 | 0.00 | 0.00 | 0.00 | 55 | 1020.1 |
| 20260508140628 | 57 | 233 | 8.0 | 10.0 | 0.00 | 0.00 | 0.00 | 55 | 1020.0 |
| 20260508140125 | 55 | 229 | 8.0 | 9.0 | 0.00 | 0.00 | 0.00 | 56 | 1020.0 |
| 20260508135621 | 55 | 234 | 8.0 | 9.0 | 0.00 | 0.00 | 0.00 | 57 | 1020.1 |
| 20260508135117 | 54 | 227 | 8.0 | 9.0 | 0.00 | 0.00 | 0.00 | 58 | 1020.2 |
| 20260508134614 | 54 | 250 | 8.0 | 9.0 | 0.00 | 0.00 | 0.00 | 59 | 1020.2 |
| 20260508134111 | 54 | 235 | 8.0 | 11.0 | 0.00 | 0.00 | 0.00 | 59 | 1020.0 |
| 20260508133608 | 55 | 234 | 10.0 | 10.0 | 0.00 | 0.00 | 0.00 | 58 | 1020.1 |
| 20260508133105 | 55 | 239 | 9.0 | 10.0 | 0.00 | 0.00 | 0.00 | 59 | 1020.1 |
| 20260508132603 | 55 | 257 | 11.0 | 14.0 | 0.00 | 0.00 | 0.00 | 57 | 1020.0 |
| 20260508132059 | 54 | 251 | 7.0 | 8.0 | 0.00 | 0.00 | 0.00 | 59 | 1020.1 |
| 20260508131555 | 53 | 224 | 10.0 | 11.0 | 0.00 | 0.00 | 0.00 | 58 | 1020.0 |
| 20260508131052 | 52 | 234 | 7.0 | 9.0 | 0.00 | 0.00 | 0.00 | 62 | 1020.0 |
| 20260508130548 | 51 | 235 | 7.0 | 8.0 | 0.00 | 0.00 | 0.00 | 62 | 1020.1 |
| 20260508130045 | 50 | 260 | 7.0 | 8.0 | 0.00 | 0.00 | 0.00 | 64 | 1020.0 |
| 20260508125541 | 50 | 235 | 7.0 | 7.0 | 0.00 | 0.00 | 0.00 | 65 | 1020.0 |
| 20260508125039 | 50 | 244 | 6.0 | 7.0 | 0.00 | 0.00 | 0.00 | 63 | 1020.1 |
| 20260508124537 | 51 | 224 | 7.0 | 8.0 | 0.00 | 0.00 | 0.00 | 63 | 1020.0 |
| 20260508124033 | 51 | 246 | 7.0 | 8.0 | 0.00 | 0.00 | 0.00 | 62 | 1019.9 |
| 20260508123532 | 50 | 230 | 7.0 | 8.0 | 0.00 | 0.00 | 0.00 | 63 | 1020.1 |
| 20260508123028 | 50 | 225 | 7.0 | 8.0 | 0.00 | 0.00 | 0.00 | 63 | 1019.9 |
| 20260508122525 | 49 | 235 | 5.0 | 7.0 | 0.00 | 0.00 | 0.00 | 64 | 1020.1 |
| 20260508122022 | 50 | 217 | 6.0 | 8.0 | 0.00 | 0.00 | 0.00 | 63 | 1020.0 |
| 20260508121520 | 49 | 251 | 6.0 | 7.0 | 0.00 | 0.00 | 0.00 | 64 | 1019.9 |
| 20260508121018 | 49 | 224 | 6.0 | 7.0 | 0.00 | 0.00 | 0.00 | 64 | 1019.7 |
| 20260508120515 | 50 | 224 | 6.0 | 8.0 | 0.00 | 0.00 | 0.00 | 63 | 1019.8 |
| 20260508120013 | 49 | 246 | 5.0 | 7.0 | 0.00 | 0.00 | 0.00 | 63 | 1019.7 |
| 20260508115510 | 49 | 261 | 5.0 | 6.0 | 0.00 | 0.00 | 0.00 | 63 | 1019.6 |
| 20260508115007 | 48 | 230 | 6.0 | 7.0 | 0.00 | 0.00 | 0.00 | 64 | 1019.8 |
| 20260508114504 | 48 | 230 | 6.0 | 7.0 | 0.00 | 0.00 | 0.00 | 65 | 1019.9 |
| 20260508114000 | 48 | 230 | 5.0 | 5.0 | 0.00 | 0.00 | 0.00 | 64 | 1019.6 |
| 20260508113458 | 48 | 234 | 6.0 | 7.0 | 0.00 | 0.00 | 0.00 | 65 | 1019.8 |
| 20260508112955 | 48 | 227 | 9.0 | 9.0 | 0.00 | 0.00 | 0.00 | 64 | 1019.5 |
| 20260508112451 | 48 | 252 | 6.0 | 7.0 | 0.00 | 0.00 | 0.00 | 65 | 1019.5 |
| 20260508111948 | 48 | 238 | 6.0 | 9.0 | 0.00 | 0.00 | 0.00 | 64 | 1019.4 |
| 20260508111445 | 48 | 257 | 7.0 | 9.0 | 0.00 | 0.00 | 0.00 | 64 | 1019.3 |
| 20260508110942 | 48 | 253 | 7.0 | 9.0 | 0.00 | 0.00 | 0.00 | 64 | 1019.2 |
| 20260508110440 | 48 | 255 | 5.0 | 7.0 | 0.00 | 0.00 | 0.00 | 64 | 1019.4 |
| 20260508105939 | 47 | 238 | 6.0 | 7.0 | 0.00 | 0.00 | 0.00 | 65 | 1019.4 |
| 20260508105436 | 47 | 231 | 6.0 | 7.0 | 0.00 | 0.00 | 0.00 | 66 | 1019.3 |
| 20260508104933 | 46 | 230 | 6.0 | 7.0 | 0.00 | 0.00 | 0.00 | 66 | 1019.5 |
| 20260508104431 | 46 | 236 | 5.0 | 6.0 | 0.00 | 0.00 | 0.00 | 66 | 1019.3 |
| 20260508103927 | 46 | 240 | 4.0 | 5.0 | 0.00 | 0.00 | 0.00 | 67 | 1019.3 |
| 20260508103425 | 46 | 239 | 4.0 | 5.0 | 0.00 | 0.00 | 0.00 | 68 | 1019.3 |
| 20260508102921 | 46 | 225 | 4.0 | 6.0 | 0.00 | 0.00 | 0.00 | 68 | 1019.3 |
| 20260508102420 | 46 | 250 | 4.0 | 5.0 | 0.00 | 0.00 | 0.00 | 67 | 1019.2 |
| 20260508101917 | 46 | 241 | 5.0 | 6.0 | 0.00 | 0.00 | 0.00 | 67 | 1019.4 |
| 20260508101414 | 46 | 229 | 5.0 | 6.0 | 0.00 | 0.00 | 0.00 | 66 | 1019.3 |
| 20260508100911 | 46 | 229 | 3.0 | 3.0 | 0.00 | 0.00 | 0.00 | 65 | 1019.3 |
| 20260508100410 | 46 | 255 | 5.0 | 7.0 | 0.00 | 0.00 | 0.00 | 66 | 1019.3 |
| 20260508095905 | 46 | 235 | 5.0 | 6.0 | 0.00 | 0.00 | 0.00 | 66 | 1019.2 |
| 20260508095403 | 46 | 249 | 5.0 | 7.0 | 0.00 | 0.00 | 0.00 | 66 | 1019.1 |
| 20260508094900 | 46 | 234 | 6.0 | 7.0 | 0.00 | 0.00 | 0.00 | 66 | 1019.4 |
| 20260508094356 | 46 | 243 | 5.0 | 6.0 | 0.00 | 0.00 | 0.00 | 65 | 1019.3 |
| 20260508093854 | 46 | 240 | 5.0 | 6.0 | 0.00 | 0.00 | 0.00 | 65 | 1019.4 |
| 20260508093351 | 46 | 230 | 6.0 | 7.0 | 0.00 | 0.00 | 0.00 | 65 | 1019.3 |
| 20260508092848 | 46 | 223 | 5.0 | 6.0 | 0.00 | 0.00 | 0.00 | 66 | 1019.4 |
| 20260508092346 | 46 | 238 | 5.0 | 6.0 | 0.00 | 0.00 | 0.00 | 65 | 1019.6 |
| 20260508091844 | 46 | 230 | 5.0 | 6.0 | 0.00 | 0.00 | 0.00 | 66 | 1019.3 |
| 20260508091340 | 46 | 224 | 5.0 | 6.0 | 0.00 | 0.00 | 0.00 | 65 | 1019.4 |
| 20260508090838 | 46 | 250 | 6.0 | 7.0 | 0.00 | 0.00 | 0.00 | 64 | 1019.1 |
| 20260508090337 | 46 | 223 | 5.0 | 6.0 | 0.00 | 0.00 | 0.00 | 64 | 1019.4 |
| 20260508085832 | 46 | 227 | 5.0 | 7.0 | 0.00 | 0.00 | 0.00 | 65 | 1019.2 |
| 20260508085329 | 46 | 249 | 4.0 | 5.0 | 0.00 | 0.00 | 0.00 | 65 | 1019.2 |
| 20260508084826 | 46 | 237 | 5.0 | 6.0 | 0.00 | 0.00 | 0.00 | 66 | 1019.2 |
| 20260508084323 | 46 | 240 | 5.0 | 7.0 | 0.00 | 0.00 | 0.00 | 65 | 1019.1 |
| 20260508083820 | 46 | 240 | 5.0 | 6.0 | 0.00 | 0.00 | 0.00 | 65 | 1019.1 |
| 20260508083318 | 46 | 218 | 5.0 | 6.0 | 0.00 | 0.00 | 0.00 | 63 | 1019.1 |
| 20260508082817 | 46 | 231 | 4.0 | 5.0 | 0.00 | 0.00 | 0.00 | 64 | 1019.0 |
| 20260508082315 | 46 | 258 | 5.0 | 6.0 | 0.00 | 0.00 | 0.00 | 64 | 1019.1 |
| 20260508081812 | 46 | 244 | 5.0 | 6.0 | 0.00 | 0.00 | 0.00 | 64 | 1019.3 |
| 20260508081309 | 46 | 248 | 6.0 | 7.0 | 0.00 | 0.00 | 0.00 | 64 | 1019.1 |
| 20260508080806 | 47 | 231 | 4.0 | 5.0 | 0.00 | 0.00 | 0.00 | 63 | 1019.3 |
| 20260508080304 | 47 | 227 | 6.0 | 7.0 | 0.00 | 0.00 | 0.00 | 62 | 1019.1 |
| 20260508075800 | 47 | 224 | 5.0 | 6.0 | 0.00 | 0.00 | 0.00 | 63 | 1019.1 |
| 20260508075257 | 47 | 230 | 5.0 | 6.0 | 0.00 | 0.00 | 0.00 | 63 | 1019.1 |
| 20260508074755 | 47 | 240 | 5.0 | 5.0 | 0.00 | 0.00 | 0.00 | 62 | 1019.1 |
| 20260508074252 | 47 | 254 | 5.0 | 5.0 | 0.00 | 0.00 | 0.00 | 61 | 1019.1 |
| 20260508073749 | 47 | 256 | 4.0 | 5.0 | 0.00 | 0.00 | 0.00 | 61 | 1019.2 |
| 20260508073247 | 47 | 238 | 6.0 | 7.0 | 0.00 | 0.00 | 0.00 | 61 | 1019.0 |
| 20260508072743 | 47 | 237 | 5.0 | 6.0 | 0.00 | 0.00 | 0.00 | 62 | 1019.2 |
| 20260508072240 | 47 | 230 | 5.0 | 6.0 | 0.00 | 0.00 | 0.00 | 62 | 1019.1 |
| 20260508071737 | 47 | 234 | 5.0 | 5.0 | 0.00 | 0.00 | 0.00 | 63 | 1019.3 |
| 20260508071235 | 47 | 227 | 5.0 | 6.0 | 0.00 | 0.00 | 0.00 | 63 | 1019.2 |
| 20260508070732 | 47 | 244 | 5.0 | 6.0 | 0.00 | 0.00 | 0.00 | 64 | 1019.3 |
| 20260508070231 | 47 | 227 | 6.0 | 7.0 | 0.00 | 0.00 | 0.00 | 64 | 1019.4 |
| 20260508065728 | 48 | 224 | 5.0 | 6.0 | 0.00 | 0.00 | 0.00 | 63 | 1019.4 |
| 20260508065226 | 48 | 222 | 6.0 | 7.0 | 0.00 | 0.00 | 0.00 | 62 | 1019.6 |
| 20260508064723 | 48 | 235 | 6.0 | 7.0 | 0.00 | 0.00 | 0.00 | 63 | 1019.4 |
| 20260508064221 | 48 | 241 | 6.0 | 7.0 | 0.00 | 0.00 | 0.00 | 63 | 1019.5 |
| 20260508063718 | 48 | 217 | 6.0 | 7.0 | 0.00 | 0.00 | 0.00 | 64 | 1019.6 |
| 20260508063216 | 47 | 239 | 6.0 | 7.0 | 0.00 | 0.00 | 0.00 | 64 | 1019.6 |
| 20260508062713 | 47 | 267 | 5.0 | 6.0 | 0.00 | 0.00 | 0.00 | 64 | 1019.6 |
| 20260508062211 | 47 | 256 | 5.0 | 6.0 | 0.00 | 0.00 | 0.00 | 64 | 1019.4 |
| 20260508061707 | 47 | 223 | 5.0 | 6.0 | 0.00 | 0.00 | 0.00 | 64 | 1019.6 |
| 20260508061205 | 47 | 229 | 5.0 | 6.0 | 0.00 | 0.00 | 0.00 | 65 | 1019.6 |
| 20260508060702 | 47 | 239 | 5.0 | 6.0 | 0.00 | 0.00 | 0.00 | 64 | 1019.4 |
| 20260508060159 | 47 | 245 | 5.0 | 7.0 | 0.00 | 0.00 | 0.00 | 65 | 1019.8 |
| 20260508055654 | 46 | 233 | 4.0 | 5.0 | 0.00 | 0.00 | 0.00 | 66 | 1019.6 |
| 20260508055151 | 46 | 246 | 3.0 | 5.0 | 0.00 | 0.00 | 0.00 | 67 | 1019.7 |
| 20260508054648 | 46 | 232 | 4.0 | 5.0 | 0.00 | 0.00 | 0.00 | 67 | 1019.5 |
| 20260508054145 | 46 | 234 | 5.0 | 6.0 | 0.00 | 0.00 | 0.00 | 67 | 1019.7 |
| 20260508053642 | 46 | 235 | 3.0 | 3.0 | 0.00 | 0.00 | 0.00 | 68 | 1019.5 |
| 20260508053140 | 47 | 235 | 3.0 | 3.0 | 0.00 | 0.00 | 0.00 | 66 | 1019.6 |
| 20260508052637 | 47 | 258 | 3.0 | 5.0 | 0.00 | 0.00 | 0.00 | 65 | 1019.5 |
| 20260508052134 | 46 | 246 | 4.0 | 5.0 | 0.00 | 0.00 | 0.00 | 66 | 1019.5 |
| 20260508051630 | 46 | 232 | 4.0 | 5.0 | 0.00 | 0.00 | 0.00 | 69 | 1019.9 |
| 20260508051125 | 46 | 237 | 3.0 | 3.0 | 0.00 | 0.00 | 0.00 | 69 | 1019.8 |
| 20260508050622 | 46 | 246 | 4.0 | 6.0 | 0.00 | 0.00 | 0.00 | 69 | 1019.6 |
| 20260508050120 | 48 | 247 | 3.0 | 3.0 | 0.00 | 0.00 | 0.00 | 64 | 1019.5 |
| 20260508045615 | 48 | 248 | 4.0 | 5.0 | 0.00 | 0.00 | 0.00 | 61 | 1019.7 |
| 20260508045113 | 47 | 241 | 3.0 | 3.0 | 0.00 | 0.00 | 0.00 | 61 | 1019.6 |
| 20260508044610 | 47 | 246 | 3.0 | 5.0 | 0.00 | 0.00 | 0.00 | 63 | 1019.6 |
| 20260508044106 | 47 | 246 | 2.0 | 2.0 | 0.00 | 0.00 | 0.00 | 64 | 1019.7 |
| 20260508043603 | 47 | 237 | 3.0 | 3.0 | 0.00 | 0.00 | 0.00 | 60 | 1019.6 |
| 20260508043101 | 47 | 238 | 1.0 | 2.0 | 0.00 | 0.00 | 0.00 | 61 | 1019.6 |
| 20260508042557 | 47 | 236 | 2.0 | 2.0 | 0.00 | 0.00 | 0.00 | 62 | 1019.8 |
| 20260508042055 | 47 | 245 | 2.0 | 2.0 | 0.00 | 0.00 | 0.00 | 62 | 1019.7 |
| 20260508041551 | 47 | 251 | 2.0 | 2.0 | 0.00 | 0.00 | 0.00 | 64 | 1019.8 |
| 20260508041047 | 46 | 245 | 2.0 | 2.0 | 0.00 | 0.00 | 0.00 | 65 | 1019.7 |
| 20260508040544 | 45 | 238 | 3.0 | 3.0 | 0.00 | 0.00 | 0.00 | 70 | 1019.6 |
| 20260508040042 | 47 | 257 | 2.0 | 2.0 | 0.00 | 0.00 | 0.00 | 68 | 1019.9 |
| 20260508035538 | 46 | 266 | 2.0 | 2.0 | 0.00 | 0.00 | 0.00 | 64 | 1019.8 |
| 20260508035036 | 46 | 237 | 3.0 | 3.0 | 0.00 | 0.00 | 0.00 | 68 | 1019.6 |
| 20260508034532 | 45 | 220 | 1.0 | 1.0 | 0.00 | 0.00 | 0.00 | 71 | 1019.6 |
| 20260508034029 | 45 | 233 | 2.0 | 2.0 | 0.00 | 0.00 | 0.00 | 74 | 1019.7 |
| 20260508033527 | 46 | 260 | 2.0 | 2.0 | 0.00 | 0.00 | 0.00 | 73 | 1019.8 |
| 20260508033025 | 45 | 251 | 1.0 | 1.0 | 0.00 | 0.00 | 0.00 | 67 | 1019.7 |
| 20260508032521 | 45 | 232 | 1.0 | 2.0 | 0.00 | 0.00 | 0.00 | 74 | 1019.4 |
| 20260508032019 | 46 | 257 | 2.0 | 2.0 | 0.00 | 0.00 | 0.00 | 74 | 1019.8 |
| 20260508031516 | 47 | 267 | 2.0 | 2.0 | 0.00 | 0.00 | 0.00 | 68 | 1019.6 |
| 20260508031012 | 47 | 226 | 3.0 | 3.0 | 0.00 | 0.00 | 0.00 | 62 | 1019.6 |
| 20260508030509 | 46 | 210 | 2.0 | 2.0 | 0.00 | 0.00 | 0.00 | 65 | 1019.6 |
| 20260508030007 | 45 | 202 | 1.0 | 2.0 | 0.00 | 0.00 | 0.00 | 68 | 1019.5 |
| 20260508025502 | 45 | 233 | 0.0 | 0.0 | 0.00 | 0.00 | 0.00 | 74 | 1019.8 |
| 20260508025000 | 44 | 241 | 0.0 | 0.0 | 0.00 | 0.00 | 0.00 | 73 | 1019.6 |
| 20260508024455 | 45 | 237 | 0.0 | 0.0 | 0.00 | 0.00 | 0.00 | 74 | 1019.8 |
| 20260508023952 | 45 | 243 | 0.0 | 0.0 | 0.00 | 0.00 | 0.00 | 71 | 1019.6 |
| 20260508023449 | 46 | 240 | 0.0 | 0.0 | 0.00 | 0.00 | 0.00 | 69 | 1019.6 |
| 20260508022947 | 47 | 237 | 1.0 | 1.0 | 0.00 | 0.00 | 0.00 | 66 | 1019.5 |
| 20260508022442 | 47 | 236 | 1.0 | 1.0 | 0.00 | 0.00 | 0.00 | 65 | 1019.6 |
| 20260508021939 | 46 | 228 | 2.0 | 2.0 | 0.00 | 0.00 | 0.00 | 66 | 1019.8 |
| 20260508021435 | 47 | 222 | 0.0 | 0.0 | 0.00 | 0.00 | 0.00 | 71 | 1019.7 |
| 20260508020931 | 45 | 228 | 1.0 | 2.0 | 0.00 | 0.00 | 0.00 | 72 | 1019.7 |
| 20260508020429 | 44 | 250 | 0.0 | 0.0 | 0.00 | 0.00 | 0.00 | 74 | 1019.9 |
| 20260508015926 | 45 | 300 | 0.0 | 0.0 | 0.00 | 0.00 | 0.00 | 78 | 1019.6 |
| 20260508015424 | 44 | 298 | 0.0 | 0.0 | 0.00 | 0.00 | 0.00 | 77 | 1019.5 |
| 20260508014920 | 44 | 335 | 0.0 | 0.0 | 0.00 | 0.00 | 0.00 | 79 | 1019.4 |
| 20260508014417 | 44 | 350 | 0.0 | 0.0 | 0.00 | 0.00 | 0.00 | 76 | 1019.5 |
| 20260508013912 | 44 | 350 | 0.0 | 0.0 | 0.00 | 0.00 | 0.00 | 75 | 1019.6 |
| 20260508013409 | 45 | 351 | 0.0 | 0.0 | 0.00 | 0.00 | 0.00 | 74 | 1019.6 |
| 20260508012906 | 46 | 351 | 0.0 | 0.0 | 0.00 | 0.00 | 0.00 | 72 | 1019.4 |
| 20260508012403 | 47 | 351 | 0.0 | 0.0 | 0.00 | 0.00 | 0.00 | 71 | 1019.8 |
| 20260508011901 | 48 | 351 | 0.0 | 0.0 | 0.00 | 0.00 | 0.00 | 71 | 1019.3 |
| 20260508011359 | 48 | 215 | 0.0 | 0.0 | 0.00 | 0.00 | 0.00 | 62 | 1019.2 |
| 20260508010855 | 48 | 213 | 0.0 | 0.0 | 0.00 | 0.00 | 0.00 | 62 | 1019.4 |
| 20260508010353 | 48 | 217 | 0.0 | 0.0 | 0.00 | 0.00 | 0.00 | 63 | 1019.6 |
| 20260508005850 | 50 | 217 | 0.0 | 0.0 | 0.00 | 0.00 | 0.00 | 62 | 1019.4 |
| 20260508005346 | 51 | 217 | 0.0 | 0.0 | 0.00 | 0.00 | 0.00 | 62 | 1019.2 |
| 20260508004843 | 51 | 221 | 1.0 | 2.0 | 0.00 | 0.00 | 0.00 | 57 | 1019.3 |
| 20260508004339 | 51 | 231 | 2.0 | 2.0 | 0.00 | 0.00 | 0.00 | 58 | 1019.3 |
| 20260508003836 | 51 | 251 | 1.0 | 2.0 | 0.00 | 0.00 | 0.00 | 57 | 1019.2 |
| 20260508003333 | 52 | 280 | 2.0 | 2.0 | 0.00 | 0.00 | 0.00 | 56 | 1019.2 |
| 20260508002830 | 52 | 268 | 1.0 | 1.0 | 0.00 | 0.00 | 0.00 | 56 | 1019.0 |
| 20260508002327 | 53 | 270 | 2.0 | 2.0 | 0.00 | 0.00 | 0.00 | 55 | 1019.0 |
| 20260508001823 | 53 | 272 | 2.0 | 2.0 | 0.00 | 0.00 | 0.00 | 52 | 1019.0 |
| 20260508001319 | 54 | 289 | 2.0 | 2.0 | 0.00 | 0.00 | 0.00 | 46 | 1019.2 |
| 20260508000815 | 55 | 293 | 2.0 | 2.0 | 0.00 | 0.00 | 0.00 | 47 | 1019.1 |
| 20260508000312 | 55 | 296 | 2.0 | 2.0 | 0.00 | 0.00 | 0.00 | 48 | 1019.0 |
| 20260507235808 | 56 | 313 | 2.0 | 2.0 | 0.00 | 0.00 | 0.00 | 46 | 1019.1 |
| 20260507235307 | 56 | 299 | 1.0 | 2.0 | 0.00 | 0.00 | 0.00 | 48 | 1018.9 |
| 20260507234803 | 57 | 298 | 3.0 | 3.0 | 0.00 | 0.00 | 0.00 | 42 | 1019.1 |
| 20260507234259 | 57 | 299 | 3.0 | 3.0 | 0.00 | 0.00 | 0.00 | 40 | 1018.8 |
| 20260507233755 | 59 | 312 | 4.0 | 5.0 | 0.00 | 0.00 | 0.00 | 38 | 1019.0 |
| 20260507233254 | 59 | 332 | 1.0 | 1.0 | 0.00 | 0.00 | 0.00 | 36 | 1018.6 |
| 20260507232751 | 59 | 315 | 0.0 | 0.0 | 0.00 | 0.00 | 0.00 | 38 | 1018.8 |
| 20260507232248 | 59 | 331 | 1.0 | 2.0 | 0.00 | 0.00 | 0.00 | 37 | 1018.9 |
| 20260507231744 | 59 | 337 | 1.0 | 1.0 | 0.00 | 0.00 | 0.00 | 37 | 1018.9 |
| 20260507231241 | 59 | 349 | 3.0 | 3.0 | 0.00 | 0.00 | 0.00 | 38 | 1019.0 |
| 20260507230738 | 58 | 302 | 5.0 | 6.0 | 0.00 | 0.00 | 0.00 | 40 | 1018.8 |
| 20260507230236 | 58 | 333 | 3.0 | 3.0 | 0.00 | 0.00 | 0.00 | 41 | 1019.1 |
| 20260507225735 | 58 | 331 | 4.0 | 5.0 | 0.00 | 0.00 | 0.00 | 36 | 1018.9 |
| 20260507225231 | 58 | 317 | 5.0 | 6.0 | 0.00 | 0.00 | 0.00 | 39 | 1018.8 |
| 20260507224727 | 59 | 318 | 4.0 | 5.0 | 0.00 | 0.00 | 0.00 | 41 | 1018.8 |
| 20260507224224 | 58 | 316 | 4.0 | 7.0 | 0.00 | 0.00 | 0.00 | 40 | 1018.6 |
| 20260507223720 | 57 | 296 | 10.0 | 11.0 | 0.00 | 0.00 | 0.00 | 38 | 1019.0 |
| 20260507223217 | 55 | 342 | 8.0 | 10.0 | 0.00 | 0.00 | 0.00 | 43 | 1019.0 |
| 20260507222714 | 56 | 308 | 5.0 | 6.0 | 0.00 | 0.00 | 0.00 | 43 | 1019.2 |
| 20260507222210 | 57 | 341 | 5.0 | 7.0 | 0.00 | 0.00 | 0.00 | 42 | 1019.1 |
| 20260507221707 | 57 | 332 | 3.0 | 3.0 | 0.00 | 0.00 | 0.00 | 43 | 1019.1 |
| 20260507221203 | 56 | 330 | 11.0 | 13.0 | 0.00 | 0.00 | 0.00 | 41 | 1019.2 |
| 20260507220700 | 57 | 337 | 7.0 | 8.0 | 0.00 | 0.00 | 0.00 | 42 | 1019.2 |
| 20260507220158 | 57 | 340 | 5.0 | 8.0 | 0.00 | 0.00 | 0.00 | 44 | 1019.2 |
| 20260507215654 | 59 | 312 | 8.0 | 10.0 | 0.00 | 0.00 | 0.00 | 39 | 1019.1 |
| 20260507215152 | 59 | 322 | 7.0 | 10.0 | 0.00 | 0.00 | 0.00 | 42 | 1018.9 |
| 20260507214649 | 59 | 345 | 6.0 | 7.0 | 0.00 | 0.00 | 0.00 | 40 | 1019.1 |
| 20260507214145 | 58 | 292 | 5.0 | 7.0 | 0.00 | 0.00 | 0.00 | 39 | 1019.1 |
| 20260507213641 | 58 | 341 | 9.0 | 11.0 | 0.00 | 0.00 | 0.00 | 40 | 1019.0 |
| 20260507213139 | 58 | 313 | 6.0 | 8.0 | 0.00 | 0.00 | 0.00 | 43 | 1019.1 |
| 20260507212634 | 58 | 330 | 2.0 | 2.0 | 0.00 | 0.00 | 0.00 | 38 | 1018.8 |
| 20260507212131 | 59 | 343 | 4.0 | 5.0 | 0.00 | 0.00 | 0.00 | 44 | 1018.9 |
| 20260507211628 | 59 | 5 | 3.0 | 6.0 | 0.00 | 0.00 | 0.00 | 41 | 1018.9 |
| 20260507211124 | 59 | 346 | 9.0 | 10.0 | 0.00 | 0.00 | 0.00 | 40 | 1019.0 |
| 20260507210622 | 58 | 335 | 3.0 | 5.0 | 0.00 | 0.00 | 0.00 | 42 | 1018.9 |
| 20260507210118 | 58 | 341 | 5.0 | 6.0 | 0.00 | 0.00 | 0.00 | 41 | 1018.8 |
| 20260507205615 | 60 | 348 | 10.0 | 11.0 | 0.00 | 0.00 | 0.00 | 40 | 1018.6 |
| 20260507205111 | 59 | 8 | 5.0 | 9.0 | 0.00 | 0.00 | 0.00 | 39 | 1018.8 |
| 20260507204608 | 59 | 326 | 8.0 | 9.0 | 0.00 | 0.00 | 0.00 | 39 | 1018.6 |
| 20260507204105 | 59 | 335 | 8.0 | 9.0 | 0.00 | 0.00 | 0.00 | 41 | 1018.6 |
| 20260507203603 | 60 | 6 | 8.0 | 10.0 | 0.00 | 0.00 | 0.00 | 41 | 1018.6 |
| 20260507203100 | 59 | 8 | 6.0 | 8.0 | 0.00 | 0.00 | 0.00 | 42 | 1018.6 |
| 20260507202556 | 59 | 319 | 7.0 | 9.0 | 0.00 | 0.00 | 0.00 | 41 | 1018.5 |
| 20260507202052 | 59 | 334 | 7.0 | 8.0 | 0.00 | 0.00 | 0.00 | 40 | 1018.6 |
| 20260507201548 | 60 | 315 | 9.0 | 11.0 | 0.00 | 0.00 | 0.00 | 43 | 1018.6 |
| 20260507201044 | 59 | 310 | 3.0 | 3.0 | 0.00 | 0.00 | 0.00 | 44 | 1018.8 |
| 20260507200540 | 59 | 316 | 7.0 | 9.0 | 0.00 | 0.00 | 0.00 | 43 | 1018.6 |
| 20260507200036 | 58 | 331 | 5.0 | 8.0 | 0.00 | 0.00 | 0.00 | 43 | 1018.9 |
| 20260507195534 | 58 | 308 | 8.0 | 10.0 | 0.00 | 0.00 | 0.00 | 44 | 1018.9 |
| 20260507195031 | 59 | 323 | 6.0 | 7.0 | 0.00 | 0.00 | 0.00 | 42 | 1018.8 |
| 20260507194527 | 59 | 327 | 8.0 | 10.0 | 0.00 | 0.00 | 0.00 | 42 | 1019.1 |
| 20260507194023 | 59 | 324 | 6.0 | 8.0 | 0.00 | 0.00 | 0.00 | 38 | 1018.9 |
| 20260507193521 | 58 | 309 | 8.0 | 11.0 | 0.00 | 0.00 | 0.00 | 45 | 1018.8 |
| 20260507193018 | 59 | 352 | 9.0 | 11.0 | 0.00 | 0.00 | 0.00 | 44 | 1018.9 |
| 20260507192514 | 58 | 297 | 9.0 | 10.0 | 0.00 | 0.00 | 0.00 | 44 | 1019.1 |
| 20260507192010 | 58 | 315 | 7.0 | 9.0 | 0.00 | 0.00 | 0.00 | 47 | 1019.2 |
| 20260507191506 | 58 | 313 | 11.0 | 15.0 | 0.00 | 0.00 | 0.00 | 43 | 1019.1 |
| 20260507191003 | 58 | 323 | 10.0 | 15.0 | 0.00 | 0.00 | 0.00 | 43 | 1019.1 |
| 20260507190500 | 58 | 297 | 8.0 | 10.0 | 0.00 | 0.00 | 0.00 | 42 | 1019.1 |
| 20260507185959 | 58 | 257 | 2.0 | 3.0 | 0.00 | 0.00 | 0.00 | 45 | 1019.0 |
| 20260507185456 | 58 | 315 | 5.0 | 7.0 | 0.00 | 0.00 | 0.00 | 45 | 1019.0 |
| 20260507184953 | 58 | 310 | 11.0 | 14.0 | 0.00 | 0.00 | 0.00 | 42 | 1019.2 |
| 20260507184451 | 58 | 306 | 8.0 | 13.0 | 0.00 | 0.00 | 0.00 | 43 | 1019.1 |
| 20260507183949 | 57 | 296 | 7.0 | 9.0 | 0.00 | 0.00 | 0.00 | 46 | 1019.0 |
| 20260507183445 | 58 | 295 | 9.0 | 11.0 | 0.00 | 0.00 | 0.00 | 44 | 1019.1 |
| 20260507182942 | 58 | 308 | 5.0 | 6.0 | 0.00 | 0.00 | 0.00 | 47 | 1018.9 |
| 20260507182438 | 57 | 338 | 7.0 | 8.0 | 0.00 | 0.00 | 0.00 | 47 | 1019.1 |
| 20260507181934 | 57 | 302 | 6.0 | 9.0 | 0.00 | 0.00 | 0.00 | 42 | 1019.3 |
| 20260507181431 | 58 | 307 | 8.0 | 9.0 | 0.00 | 0.00 | 0.00 | 44 | 1019.3 |
| 20260507180928 | 58 | 310 | 5.0 | 6.0 | 0.00 | 0.00 | 0.00 | 47 | 1019.3 |
| 20260507180424 | 57 | 321 | 2.0 | 3.0 | 0.00 | 0.00 | 0.00 | 47 | 1019.4 |
| 20260507175920 | 57 | 317 | 5.0 | 8.0 | 0.00 | 0.00 | 0.00 | 51 | 1019.3 |
| 20260507175417 | 57 | 300 | 7.0 | 8.0 | 0.00 | 0.00 | 0.00 | 45 | 1019.2 |
| 20260507174915 | 57 | 312 | 9.0 | 10.0 | 0.00 | 0.00 | 0.00 | 45 | 1019.5 |
| 20260507174412 | 57 | 311 | 8.0 | 10.0 | 0.00 | 0.00 | 0.00 | 45 | 1019.5 |
| 20260507173910 | 57 | 302 | 9.0 | 11.0 | 0.00 | 0.00 | 0.00 | 45 | 1019.3 |
| 20260507173406 | 57 | 328 | 6.0 | 7.0 | 0.00 | 0.00 | 0.00 | 51 | 1019.5 |
| 20260507172903 | 57 | 298 | 3.0 | 5.0 | 0.00 | 0.00 | 0.00 | 52 | 1019.4 |
| 20260507172359 | 56 | 295 | 4.0 | 6.0 | 0.00 | 0.00 | 0.00 | 50 | 1019.6 |
| 20260507171855 | 56 | 295 | 8.0 | 9.0 | 0.00 | 0.00 | 0.00 | 46 | 1020.0 |
| 20260507171352 | 56 | 294 | 7.0 | 9.0 | 0.00 | 0.00 | 0.00 | 48 | 1019.9 |